Location: Antioch
(38.0049°N, 121.8058°W)
Time: 02:56:03
(UTC+00:00)

Cosmos 1354 Rocket - Pass Details

Date: 24 May 2026
Orbit: 761 x 778 km, 74.0° (Epoch: 9 June)

Event Time Altitude Azimuth Distance (km) Brightness Sun altitude
Rises 04:52:54 0° 342° (NNW) 3,233 8.4 -16.1°
Reaches altitude 10° 04:55:17 10° 343° (NNW) 2,301 7.4 -16.4°
Maximum altitude 05:00:31 86° 71° (ENE) 767 3.9 -17.1°
Enters shadow 05:03:21 28° 160° (SSE) 1,401 4.8 -17.5°
